| time (UTC) | temp F | wind direction | speed MPH | gust MPH | rain 1hr in | rain 24hr in | rain mn in | humidity % | barometer mb |
| 20260905154015 | 75 | 123 | 0.0 | 1.0 | 0.00 | 0.07 | 0.05 | 88 | 1015.1 |
| 20260905153015 | 75 | 0.0 | 0.0 | 0.00 | 0.07 | 0.05 | 89 | 1015.1 | |
| 20260905152015 | 74 | 89 | 0.0 | 1.0 | 0.00 | 0.07 | 0.05 | 88 | 1015.2 |
| 20260905151035 | 74 | 242 | 0.0 | 1.0 | 0.00 | 0.07 | 0.05 | 90 | 1015.0 |
| 20260905150015 | 74 | 59 | 0.0 | 1.0 | 0.00 | 0.07 | 0.05 | 91 | 1014.9 |
| 20260905145016 | 73 | 158 | 0.0 | 1.0 | 0.00 | 0.07 | 0.05 | 91 | 1014.8 |
| 20260905144015 | 73 | 0.0 | 0.0 | 0.00 | 0.07 | 0.05 | 91 | 1014.7 | |
| 20260905143015 | 73 | 201 | 0.0 | 2.0 | 0.00 | 0.07 | 0.05 | 91 | 1014.8 |
| 20260905142015 | 73 | 116 | 0.0 | 1.0 | 0.00 | 0.07 | 0.05 | 92 | 1014.7 |
| 20260905141015 | 73 | 128 | 0.0 | 1.0 | 0.00 | 0.07 | 0.05 | 92 | 1014.6 |
| 20260905140036 | 72 | 275 | 0.0 | 2.0 | 0.00 | 0.07 | 0.05 | 92 | 1014.6 |
| 20260905135035 | 72 | 250 | 0.0 | 2.0 | 0.00 | 0.07 | 0.05 | 92 | 1014.6 |
| 20260905134016 | 72 | 238 | 0.0 | 1.0 | 0.00 | 0.07 | 0.05 | 93 | 1014.7 |
| 20260905133015 | 72 | 244 | 0.0 | 2.0 | 0.00 | 0.07 | 0.05 | 93 | 1014.6 |
| 20260905132016 | 72 | 0.0 | 0.0 | 0.00 | 0.07 | 0.05 | 93 | 1014.7 | |
| 20260905131015 | 72 | 0.0 | 0.0 | 0.00 | 0.07 | 0.05 | 93 | 1014.8 | |
| 20260905130015 | 71 | 0.0 | 0.0 | 0.00 | 0.07 | 0.05 | 93 | 1014.8 | |
| 20260905125035 | 71 | 0.0 | 0.0 | 0.00 | 0.07 | 0.05 | 93 | 1014.9 | |
| 20260905124015 | 71 | 0.0 | 0.0 | 0.00 | 0.07 | 0.05 | 93 | 1014.9 | |
| 20260905123015 | 71 | 0.0 | 0.0 | 0.00 | 0.07 | 0.05 | 93 | 1015.0 | |
| 20260905122035 | 71 | 0.0 | 0.0 | 0.00 | 0.07 | 0.05 | 93 | 1014.8 | |
| 20260905121015 | 71 | 0.0 | 1.0 | 0.01 | 0.07 | 0.05 | 93 | 1014.8 | |
| 20260905120015 | 71 | 152 | 0.0 | 2.0 | 0.01 | 0.07 | 0.05 | 92 | 1014.7 |
| 20260905115035 | 71 | 321 | 0.0 | 1.0 | 0.01 | 0.07 | 0.05 | 92 | 1014.8 |
| 20260905114035 | 71 | 21 | 0.0 | 1.0 | 0.01 | 0.07 | 0.05 | 92 | 1014.4 |
| 20260905113015 | 71 | 16 | 0.0 | 1.0 | 0.01 | 0.07 | 0.05 | 92 | 1014.5 |
| 20260905112015 | 71 | 0.0 | 0.0 | 0.01 | 0.07 | 0.05 | 92 | 1014.6 | |
| 20260905111015 | 71 | 0.0 | 0.0 | 0.00 | 0.06 | 0.04 | 92 | 1014.4 | |
| 20260905110015 | 71 | 0.0 | 0.0 | 0.00 | 0.06 | 0.04 | 92 | 1014.0 | |
| 20260905105015 | 71 | 0.0 | 1.0 | 0.00 | 0.06 | 0.04 | 92 | 1014.3 | |
| 20260905104015 | 71 | 0.0 | 1.0 | 0.01 | 0.06 | 0.04 | 92 | 1014.9 | |
| 20260905103015 | 71 | 0.0 | 1.0 | 0.01 | 0.06 | 0.04 | 92 | 1015.0 | |
| 20260905102015 | 71 | 280 | 1.0 | 4.0 | 0.01 | 0.06 | 0.04 | 92 | 1015.3 |
| 20260905101015 | 71 | 283 | 2.0 | 4.0 | 0.01 | 0.06 | 0.04 | 92 | 1015.3 |
| 20260905100015 | 71 | 0.0 | 0.0 | 0.01 | 0.06 | 0.04 | 92 | 1015.0 | |
| 20260905095015 | 71 | 0.0 | 0.0 | 0.01 | 0.06 | 0.04 | 92 | 1014.8 | |
| 20260905094015 | 71 | 0.0 | 0.0 | 0.00 | 0.05 | 0.03 | 92 | 1014.4 | |
| 20260905093035 | 71 | 0.0 | 0.0 | 0.00 | 0.05 | 0.03 | 92 | 1014.0 | |
| 20260905092015 | 71 | 0.0 | 0.0 | 0.00 | 0.05 | 0.03 | 92 | 1014.2 | |
| 20260905091015 | 71 | 0.0 | 0.0 | 0.00 | 0.05 | 0.03 | 92 | 1014.0 | |
| 20260905090015 | 71 | 0.0 | 0.0 | 0.00 | 0.05 | 0.03 | 92 | 1013.7 | |
| 20260905085015 | 71 | 0.0 | 0.0 | 0.00 | 0.05 | 0.03 | 92 | 1013.6 | |
| 20260905084015 | 71 | 0.0 | 0.0 | 0.00 | 0.05 | 0.03 | 92 | 1013.8 | |
| 20260905083016 | 71 | 0.0 | 0.0 | 0.00 | 0.05 | 0.03 | 92 | 1013.4 | |
| 20260905082015 | 71 | 0.0 | 0.0 | 0.00 | 0.05 | 0.03 | 92 | 1013.3 | |
| 20260905081015 | 71 | 0.0 | 0.0 | 0.00 | 0.05 | 0.03 | 92 | 1013.5 | |
| 20260905080015 | 70 | 0.0 | 0.0 | 0.00 | 0.06 | 0.03 | 92 | 1013.7 | |
| 20260905075015 | 70 | 0.0 | 0.0 | 0.00 | 0.07 | 0.03 | 92 | 1014.1 | |
| 20260905074015 | 70 | 0.0 | 0.0 | 0.00 | 0.08 | 0.03 | 92 | 1014.2 | |
| 20260905073035 | 70 | 0.0 | 0.0 | 0.00 | 0.08 | 0.03 | 92 | 1014.0 | |
| 20260905072015 | 70 | 0.0 | 0.0 | 0.00 | 0.08 | 0.03 | 92 | 1014.0 | |
| 20260905071035 | 71 | 0.0 | 0.0 | 0.03 | 0.09 | 0.03 | 92 | 1014.1 | |
| 20260905070015 | 71 | 0.0 | 1.0 | 0.03 | 0.34 | 0.03 | 92 | 1014.1 | |
| 20260905065015 | 71 | 148 | 0.0 | 1.0 | 0.03 | 0.39 | 0.03 | 92 | 1014.4 |
| 20260905064015 | 71 | 186 | 0.0 | 1.0 | 0.03 | 0.39 | 0.03 | 92 | 1014.6 |
| 20260905063015 | 71 | 0.0 | 1.0 | 0.03 | 0.39 | 0.03 | 92 | 1014.6 | |
| 20260905062015 | 71 | 91 | 0.0 | 2.0 | 0.03 | 0.39 | 0.03 | 92 | 1014.8 |
| 20260905061016 | 71 | 0.0 | 0.0 | 0.00 | 0.36 | 0.00 | 92 | 1015.1 | |
| 20260905060015 | 70 | 0.0 | 0.0 | 0.00 | 0.36 | 0.00 | 92 | 1015.1 | |
| 20260905055015 | 70 | 0.0 | 0.0 | 0.00 | 0.36 | 0.00 | 92 | 1015.1 | |
| 20260905054015 | 70 | 0.0 | 0.0 | 0.00 | 0.36 | 0.00 | 92 | 1015.3 | |
| 20260905053015 | 70 | 0.0 | 0.0 | 0.00 | 0.36 | 0.00 | 92 | 1015.4 | |
| 20260905052015 | 70 | 0.0 | 0.0 | 0.00 | 0.36 | 0.00 | 92 | 1015.4 | |
| 20260905051015 | 71 | 0.0 | 0.0 | 0.00 | 0.36 | 0.00 | 92 | 1015.1 | |
| 20260905050015 | 71 | 0.0 | 0.0 | 0.00 | 0.36 | 0.00 | 92 | 1015.1 | |
| 20260905045015 | 71 | 0.0 | 0.0 | 0.00 | 0.36 | 0.00 | 92 | 1015.5 | |
| 20260905044016 | 71 | 0.0 | 0.0 | 0.00 | 0.36 | 0.00 | 92 | 1015.3 | |
| 20260905043015 | 70 | 0.0 | 0.0 | 0.00 | 0.36 | 0.00 | 92 | 1015.3 | |
| 20260905042016 | 71 | 0.0 | 0.0 | 0.00 | 0.36 | 0.00 | 92 | 1015.3 | |
| 20260905041015 | 71 | 0.0 | 0.0 | 0.00 | 0.36 | 0.00 | 92 | 1015.3 | |
| 20260905040015 | 71 | 0.0 | 0.0 | 0.00 | 0.36 | 0.36 | 92 | 1015.3 | |
| 20260905035016 | 71 | 0.0 | 0.0 | 0.00 | 0.36 | 0.36 | 92 | 1015.3 | |
| 20260905034036 | 71 | 0.0 | 0.0 | 0.00 | 0.36 | 0.36 | 91 | 1015.2 | |
| 20260905033036 | 71 | 0.0 | 0.0 | 0.00 | 0.36 | 0.36 | 91 | 1015.3 | |
| 20260905032016 | 71 | 0.0 | 0.0 | 0.00 | 0.36 | 0.36 | 91 | 1015.2 | |
| 20260905031016 | 72 | 0.0 | 0.0 | 0.00 | 0.36 | 0.36 | 91 | 1015.2 | |
| 20260905030016 | 72 | 0.0 | 0.0 | 0.00 | 0.36 | 0.36 | 91 | 1015.3 | |
| 20260905025016 | 72 | 0.0 | 0.0 | 0.00 | 0.36 | 0.36 | 91 | 1015.4 | |
| 20260905024016 | 72 | 0.0 | 0.0 | 0.00 | 0.36 | 0.36 | 91 | 1015.4 | |
| 20260905023017 | 72 | 0.0 | 0.0 | 0.00 | 0.36 | 0.36 | 91 | 1015.4 | |
| 20260905022016 | 72 | 0.0 | 0.0 | 0.00 | 0.36 | 0.36 | 91 | 1015.5 | |
| 20260905021016 | 72 | 0.0 | 0.0 | 0.00 | 0.36 | 0.36 | 91 | 1015.4 | |
| 20260905020016 | 72 | 0.0 | 0.0 | 0.00 | 0.36 | 0.36 | 91 | 1015.3 | |
| 20260905015036 | 72 | 0.0 | 0.0 | 0.00 | 0.36 | 0.36 | 91 | 1015.4 | |
| 20260905014016 | 73 | 0.0 | 0.0 | 0.00 | 0.36 | 0.36 | 91 | 1015.4 | |
| 20260905013016 | 73 | 0.0 | 0.0 | 0.00 | 0.36 | 0.36 | 91 | 1015.4 | |
| 20260905012016 | 73 | 0.0 | 0.0 | 0.00 | 0.36 | 0.36 | 91 | 1015.5 | |
| 20260905011016 | 73 | 0.0 | 0.0 | 0.00 | 0.36 | 0.36 | 91 | 1015.5 | |
| 20260905010016 | 73 | 0.0 | 0.0 | 0.00 | 0.36 | 0.36 | 91 | 1015.1 | |
| 20260905005016 | 74 | 0.0 | 0.0 | 0.00 | 0.36 | 0.36 | 91 | 1015.0 | |
| 20260905004036 | 74 | 0.0 | 0.0 | 0.00 | 0.36 | 0.36 | 90 | 1014.8 | |
| 20260905003016 | 74 | 0.0 | 0.0 | 0.00 | 0.36 | 0.36 | 90 | 1014.6 | |
| 20260905002016 | 75 | 0.0 | 0.0 | 0.00 | 0.36 | 0.36 | 90 | 1014.6 | |
| 20260905001016 | 75 | 0.0 | 0.0 | 0.00 | 0.36 | 0.36 | 90 | 1014.6 | |
| 20260905000037 | 75 | 0.0 | 0.0 | 0.00 | 0.36 | 0.36 | 90 | 1014.7 | |
| 20260904235016 | 75 | 0.0 | 0.0 | 0.00 | 0.36 | 0.36 | 89 | 1014.8 | |
| 20260904234016 | 76 | 0.0 | 0.0 | 0.00 | 0.36 | 0.36 | 89 | 1015.1 | |
| 20260904233036 | 76 | 0.0 | 0.0 | 0.00 | 0.36 | 0.36 | 89 | 1015.1 | |
| 20260904232016 | 76 | 0.0 | 0.0 | 0.00 | 0.36 | 0.36 | 89 | 1015.1 | |
| 20260904231016 | 76 | 0.0 | 0.0 | 0.00 | 0.36 | 0.36 | 88 | 1015.4 | |
| 20260904230016 | 77 | 0.0 | 0.0 | 0.00 | 0.36 | 0.36 | 88 | 1015.5 | |
| 20260904225016 | 77 | 0.0 | 0.0 | 0.00 | 0.36 | 0.36 | 88 | 1015.4 | |
| 20260904224016 | 78 | 0.0 | 0.0 | 0.00 | 0.36 | 0.36 | 87 | 1015.4 | |
| 20260904223036 | 78 | 0.0 | 0.0 | 0.00 | 0.36 | 0.36 | 86 | 1015.1 | |
| 20260904222016 | 78 | 0.0 | 0.0 | 0.00 | 0.36 | 0.36 | 86 | 1014.9 | |
| 20260904221016 | 79 | 0.0 | 0.0 | 0.00 | 0.36 | 0.36 | 85 | 1014.8 | |
| 20260904220016 | 79 | 116 | 0.0 | 1.0 | 0.00 | 0.36 | 0.36 | 82 | 1014.6 |
| 20260904215056 | 79 | 0.0 | 0.0 | 0.00 | 0.36 | 0.36 | 83 | 1014.5 | |
| 20260904214016 | 80 | 265 | 0.0 | 1.0 | 0.00 | 0.36 | 0.36 | 80 | 1014.2 |
| 20260904213016 | 80 | 133 | 0.0 | 3.0 | 0.00 | 0.36 | 0.36 | 80 | 1013.8 |
| 20260904212016 | 80 | 246 | 0.0 | 2.0 | 0.00 | 0.36 | 0.36 | 82 | 1013.8 |
| 20260904211016 | 80 | 233 | 0.0 | 1.0 | 0.00 | 0.36 | 0.36 | 82 | 1014.0 |
| 20260904210016 | 80 | 203 | 0.0 | 1.0 | 0.00 | 0.36 | 0.36 | 82 | 1014.4 |
| 20260904205017 | 80 | 117 | 0.0 | 1.0 | 0.00 | 0.36 | 0.36 | 81 | 1014.7 |
| 20260904204016 | 80 | 228 | 0.0 | 2.0 | 0.00 | 0.36 | 0.36 | 80 | 1014.7 |
| 20260904203016 | 79 | 0.0 | 2.0 | 0.00 | 0.36 | 0.36 | 82 | 1014.7 | |
| 20260904202016 | 79 | 0.0 | 0.0 | 0.00 | 0.36 | 0.36 | 82 | 1014.8 | |
| 20260904201016 | 80 | 144 | 0.0 | 1.0 | 0.00 | 0.36 | 0.36 | 81 | 1015.0 |
| 20260904200036 | 79 | 270 | 0.0 | 1.0 | 0.00 | 0.36 | 0.36 | 80 | 1015.4 |
| 20260904195037 | 79 | 265 | 0.0 | 2.0 | 0.00 | 0.36 | 0.36 | 81 | 1015.2 |
| 20260904194016 | 79 | 111 | 0.0 | 2.0 | 0.00 | 0.36 | 0.36 | 81 | 1015.1 |
| 20260904193017 | 79 | 206 | 0.0 | 2.0 | 0.00 | 0.36 | 0.36 | 81 | 1015.3 |
| 20260904192016 | 79 | 0.0 | 2.0 | 0.00 | 0.36 | 0.36 | 82 | 1015.5 | |
| 20260904191016 | 79 | 164 | 0.0 | 4.0 | 0.00 | 0.36 | 0.36 | 82 | 1016.0 |
| 20260904190056 | 78 | 244 | 0.0 | 5.0 | 0.00 | 0.36 | 0.36 | 83 | 1016.3 |
| 20260904185016 | 78 | 279 | 2.0 | 6.0 | 0.00 | 0.36 | 0.36 | 83 | 1016.7 |
| 20260904184016 | 78 | 273 | 2.0 | 7.0 | 0.00 | 0.36 | 0.36 | 83 | 1016.9 |
| 20260904183017 | 78 | 273 | 1.0 | 5.0 | 0.00 | 0.36 | 0.36 | 84 | 1017.1 |
| 20260904182036 | 79 | 288 | 1.0 | 4.0 | 0.02 | 0.36 | 0.36 | 85 | 1017.3 |
| 20260904181016 | 77 | 278 | 2.0 | 6.0 | 0.02 | 0.36 | 0.36 | 86 | 1017.2 |
| 20260904180036 | 77 | 280 | 2.0 | 5.0 | 0.02 | 0.36 | 0.36 | 87 | 1017.3 |
| 20260904175016 | 76 | 267 | 0.0 | 2.0 | 0.02 | 0.36 | 0.36 | 89 | 1017.4 |
| 20260904174016 | 76 | 246 | 0.0 | 3.0 | 0.02 | 0.36 | 0.36 | 89 | 1017.7 |
| 20260904173015 | 76 | 281 | 1.0 | 6.0 | 0.02 | 0.36 | 0.36 | 91 | 1017.6 |
| 20260904172016 | 77 | 271 | 1.0 | 5.0 | 0.00 | 0.34 | 0.34 | 92 | 1017.5 |
| 20260904171016 | 77 | 285 | 0.0 | 3.0 | 0.00 | 0.34 | 0.34 | 92 | 1017.4 |
| 20260904170017 | 77 | 288 | 0.0 | 4.0 | 0.00 | 0.34 | 0.34 | 92 | 1017.3 |
| 20260904165016 | 77 | 269 | 2.0 | 4.0 | 0.00 | 0.34 | 0.34 | 92 | 1017.2 |
| 20260904164015 | 76 | 278 | 1.0 | 4.0 | 0.00 | 0.34 | 0.34 | 93 | 1016.7 |
| 20260904163016 | 77 | 205 | 0.0 | 1.0 | 0.00 | 0.34 | 0.34 | 93 | 1016.7 |
| 20260904162016 | 75 | 206 | 0.0 | 2.0 | 0.00 | 0.34 | 0.34 | 93 | 1016.7 |
| 20260904161016 | 75 | 165 | 0.0 | 3.0 | 0.00 | 0.34 | 0.34 | 93 | 1016.7 |
| 20260904160036 | 75 | 0.0 | 0.0 | 0.00 | 0.34 | 0.34 | 93 | 1016.8 | |
| 20260904155016 | 74 | 0.0 | 0.0 | 0.00 | 0.34 | 0.34 | 93 | 1016.9 |